TimeEST,TemperatureF,Dew PointF,Humidity,Sea Level PressureIn,VisibilityMPH,Wind Direction,Wind SpeedMPH,Gust SpeedMPH,PrecipitationIn,Events,Conditions,WindDirDegrees,DateUTC
12:13 AM,-2.4,-6.2,84,30.34,10.0,Calm,Calm,-,N/A,,Clear,0,2014-02-04 05:13:00
12:33 AM,-1.7,-5.3,85,30.34,10.0,Calm,Calm,-,N/A,,Clear,0,2014-02-04 05:33:00
12:54 AM,-0.6,-3.8,86,30.34,10.0,Calm,Calm,-,N/A,,Clear,0,2014-02-04 05:54:00
1:13 AM,-2.0,-5.8,84,30.35,10.0,Calm,Calm,-,N/A,,Clear,0,2014-02-04 06:13:00
1:33 AM,-2.0,-5.6,85,30.35,10.0,Calm,Calm,-,N/A,,Clear,0,2014-02-04 06:33:00
1:54 AM,-3.3,-6.9,85,30.35,10.0,Calm,Calm,-,N/A,,Clear,0,2014-02-04 06:54:00
2:13 AM,-4.4,-8.5,82,30.35,10.0,Calm,Calm,-,N/A,,Clear,0,2014-02-04 07:13:00
2:33 AM,-1.5,-5.1,85,30.34,10.0,Calm,Calm,-,N/A,,Clear,0,2014-02-04 07:33:00
2:54 AM,-4.7,-8.7,83,30.35,10.0,Calm,Calm,-,N/A,,Clear,0,2014-02-04 07:54:00
3:13 AM,-3.8,-7.6,84,30.35,10.0,Calm,Calm,-,N/A,,Clear,0,2014-02-04 08:13:00
3:33 AM,-2.7,-6.3,85,30.35,10.0,Calm,Calm,-,N/A,,Clear,0,2014-02-04 08:33:00
3:54 AM,-4.0,-8.0,83,30.35,10.0,Calm,Calm,-,N/A,,Clear,0,2014-02-04 08:54:00
4:13 AM,-3.5,-7.4,83,30.34,10.0,Calm,Calm,-,N/A,,Clear,0,2014-02-04 09:13:00
4:33 AM,-4.2,-8.1,83,30.35,10.0,Calm,Calm,-,N/A,,Clear,0,2014-02-04 09:33:00
4:54 AM,-4.0,-8.0,83,30.36,10.0,Calm,Calm,-,N/A,,Clear,0,2014-02-04 09:54:00
5:13 AM,-4.4,-8.5,82,30.37,10.0,Calm,Calm,-,N/A,,Clear,0,2014-02-04 10:13:00
5:33 AM,-3.8,-7.8,83,30.39,10.0,Calm,Calm,-,N/A,,Clear,0,2014-02-04 10:33:00
5:54 AM,-3.5,-7.4,83,30.38,10.0,Calm,Calm,-,N/A,,Clear,0,2014-02-04 10:54:00
6:13 AM,-4.0,-8.0,83,30.38,10.0,Calm,Calm,-,N/A,,Clear,0,2014-02-04 11:13:00
6:33 AM,-4.0,-8.0,83,30.38,10.0,Calm,Calm,-,N/A,,Clear,0,2014-02-04 11:33:00
6:54 AM,-1.7,-5.4,84,30.38,10.0,Calm,Calm,-,N/A,,Clear,0,2014-02-04 11:54:00
7:13 AM,-3.6,-7.8,82,30.37,10.0,Calm,Calm,-,N/A,,Clear,0,2014-02-04 12:13:00
7:33 AM,-2.7,-6.3,85,30.36,10.0,Calm,Calm,-,N/A,,Clear,0,2014-02-04 12:33:00
7:54 AM,-2.7,-6.7,83,30.37,10.0,ESE,3.5,-,N/A,,Clear,110,2014-02-04 12:54:00
8:13 AM,-2.2,-5.8,85,30.38,10.0,Calm,Calm,-,N/A,,Clear,0,2014-02-04 13:13:00
8:33 AM,-1.3,-5.1,84,30.40,10.0,Calm,Calm,-,N/A,,Clear,0,2014-02-04 13:33:00
8:54 AM,-0.0,-3.8,84,30.40,10.0,Calm,Calm,-,N/A,,Clear,0,2014-02-04 13:54:00
9:13 AM,1.8,-2.0,84,30.40,10.0,Calm,Calm,-,N/A,,Clear,0,2014-02-04 14:13:00
9:33 AM,3.0,-0.8,84,30.39,10.0,Calm,Calm,-,N/A,,Clear,0,2014-02-04 14:33:00
9:54 AM,5.4,2.3,87,30.38,7.0,Calm,Calm,-,N/A,,Clear,0,2014-02-04 14:54:00
10:13 AM,7.5,4.3,87,30.38,7.0,Calm,Calm,-,N/A,,Clear,0,2014-02-04 15:13:00
10:33 AM,9.0,5.9,87,30.38,7.0,Calm,Calm,-,N/A,,Clear,0,2014-02-04 15:33:00
10:54 AM,10.2,7.3,88,30.38,7.0,Calm,Calm,-,N/A,,Clear,0,2014-02-04 15:54:00
11:13 AM,11.3,7.9,86,30.39,7.0,Calm,Calm,-,N/A,,Clear,0,2014-02-04 16:13:00
11:33 AM,14.0,9.1,81,30.36,7.0,Calm,Calm,-,N/A,,Clear,0,2014-02-04 16:33:00
11:54 AM,17.2,8.2,68,30.34,10.0,Calm,Calm,-,N/A,,Clear,0,2014-02-04 16:54:00
12:13 PM,18.1,9.0,67,30.32,10.0,Calm,Calm,-,N/A,,Clear,0,2014-02-04 17:13:00
12:33 PM,19.2,9.0,64,30.32,10.0,Calm,Calm,-,N/A,,Clear,0,2014-02-04 17:33:00
12:54 PM,21.0,8.6,59,30.32,10.0,Calm,Calm,-,N/A,,Clear,0,2014-02-04 17:54:00
1:13 PM,21.2,9.3,60,30.31,10.0,Calm,Calm,-,N/A,,Clear,0,2014-02-04 18:13:00
1:33 PM,21.6,9.3,59,30.30,10.0,East,3.5,-,N/A,,Scattered Clouds,90,2014-02-04 18:33:00
1:54 PM,21.7,9.7,60,30.30,10.0,East,3.5,-,N/A,,Mostly Cloudy,80,2014-02-04 18:54:00
2:13 PM,22.1,10.4,61,30.29,10.0,East,3.5,-,N/A,,Overcast,100,2014-02-04 19:13:00
2:34 PM,22.1,10.8,62,30.27,10.0,ENE,5.8,-,N/A,,Overcast,60,2014-02-04 19:34:00
2:53 PM,22.1,10.4,61,30.29,10.0,Calm,Calm,-,N/A,,Overcast,0,2014-02-04 19:53:00
3:13 PM,22.1,10.4,61,30.29,10.0,East,3.5,-,N/A,,Overcast,80,2014-02-04 20:13:00
3:33 PM,22.1,10.4,61,30.28,10.0,ENE,3.5,-,N/A,,Overcast,70,2014-02-04 20:33:00
3:53 PM,22.1,10.8,62,30.29,10.0,Calm,Calm,-,N/A,,Overcast,0,2014-02-04 20:53:00
4:13 PM,22.1,10.9,62,30.29,10.0,Calm,Calm,-,N/A,,Overcast,0,2014-02-04 21:13:00
4:34 PM,22.1,11.3,63,30.28,10.0,Calm,Calm,-,N/A,,Overcast,0,2014-02-04 21:34:00
4:53 PM,22.1,10.8,62,30.26,10.0,East,4.6,-,N/A,,Overcast,90,2014-02-04 21:53:00
5:13 PM,21.9,11.3,64,30.26,10.0,East,4.6,-,N/A,,Overcast,80,2014-02-04 22:13:00
5:34 PM,21.9,11.3,64,30.26,10.0,Calm,Calm,-,N/A,,Overcast,0,2014-02-04 22:34:00
5:53 PM,21.7,11.8,66,30.25,10.0,ENE,3.5,-,N/A,,Overcast,70,2014-02-04 22:53:00
6:13 PM,21.6,11.7,66,30.25,10.0,Calm,Calm,-,N/A,,Overcast,0,2014-02-04 23:13:00
6:34 PM,21.4,11.3,65,30.27,10.0,Calm,Calm,-,N/A,,Overcast,0,2014-02-04 23:34:00
6:53 PM,20.7,11.8,69,30.26,10.0,Calm,Calm,-,N/A,,Overcast,0,2014-02-04 23:53:00
7:13 PM,20.3,12.2,71,30.23,10.0,Calm,Calm,-,N/A,,Overcast,0,2014-02-05 00:13:00
7:34 PM,20.7,11.3,67,30.21,10.0,ENE,3.5,-,N/A,,Overcast,70,2014-02-05 00:34:00
7:53 PM,20.8,11.5,67,30.22,10.0,Calm,Calm,-,N/A,,Overcast,0,2014-02-05 00:53:00
8:13 PM,20.7,11.7,68,30.21,10.0,Calm,Calm,-,N/A,,Overcast,0,2014-02-05 01:13:00
8:34 PM,20.3,11.5,69,30.20,10.0,East,3.5,-,N/A,,Overcast,80,2014-02-05 01:34:00
8:53 PM,20.3,12.2,71,30.18,7.0,ENE,3.5,-,N/A,Snow,Light Snow,70,2014-02-05 01:53:00
9:13 PM,19.6,13.1,76,30.17,5.0,NE,3.5,-,N/A,Snow,Light Snow,50,2014-02-05 02:13:00
9:34 PM,19.4,14.0,80,30.17,7.0,NE,3.5,-,N/A,Snow,Light Snow,40,2014-02-05 02:34:00
9:53 PM,19.4,14.0,80,30.15,7.0,NE,4.6,-,N/A,Snow,Light Snow,40,2014-02-05 02:53:00
10:13 PM,19.2,14.5,82,30.16,4.0,NE,6.9,-,N/A,Snow,Light Snow,50,2014-02-05 03:13:00
10:34 PM,19.0,14.0,81,30.13,4.0,ENE,9.2,-,N/A,Snow,Light Snow,70,2014-02-05 03:34:00
10:53 PM,18.5,14.9,86,30.11,3.0,ENE,8.1,-,N/A,Snow,Light Snow,60,2014-02-05 03:53:00
11:13 PM,18.3,14.7,86,30.10,2.5,NE,6.9,-,N/A,Snow,Light Snow,50,2014-02-05 04:13:00
11:34 PM,18.1,14.9,87,30.09,3.0,NE,5.8,-,N/A,Snow,Light Snow,50,2014-02-05 04:34:00
11:53 PM,18.0,14.9,88,30.09,3.0,NE,4.6,-,N/A,Snow,Light Snow,50,2014-02-05 04:53:00